Regional Weather Roundup
Issued by NWS

Home | Current Version | Previous Version | Text Only | Print | Product List | Glossary On
Versions: 1 2 3 4 5 6 7 8 9 10 11 12 13 14 15 16 17 18 19 20 21 22 23 24 25 26 27 28 29 30 31 32 33 34 35 36 37 38 39 40 41 42 43 44 45 46 47 48 49 50
000
ASUS44 KFWD 230515
RWRTX
NORTH TEXAS HOURLY WEATHER ROUNDUP
NATIONAL WEATHER SERVICE FORT WORTH TX
1200 AM CDT THU OCT 23 2014

NOTE: "FAIR" INDICATES FEW OR NO CLOUDS BELOW 12,000 FEET WITH NO
SIGNIFICANT WEATHER AND/OR OBSTRUCTIONS TO VISIBILITY.

TXZ118-119-230600-
DALLAS/FORT WORTH METROPLEX

CITY           SKY/WX    TMP DP  RH WIND       PRES   REMARKS
DFW AIRPORT    CLOUDY    70  54  56 SE8       30.10F
DALLAS LOVE    CLOUDY    71  53  52 SE13      30.10F
FTW MEACHAM    CLOUDY    72  55  55 SE7       30.10S
DAL-EXECUTIVE  CLOUDY    69  54  58 SE8       30.10F
FTW-ALLIANCE   CLOUDY    70  54  56 SE7       30.10S
FTW-NAS-JRB    CLOUDY    77  53  43 SE7       30.14S
FTW-SPINKS     CLOUDY    69  55  62 SE6       30.11F
ARLINGTON      CLOUDY    70  54  56 SE8       30.11S
GRAND PRAIRIE  CLOUDY    70  56  61 E5        30.12F
ADDISON        CLOUDY    71  56  59 SE7       30.12F
MESQUITE       CLOUDY    67  53  60 SE5       30.12S
LANCASTER      CLOUDY    66  53  61 E3        30.12F
$$

TXZ091>094-102>105-117-120-121-131>134-230600-
NORTH CENTRAL TEXAS

CITY           SKY/WX    TMP DP  RH WIND       PRES   REMARKS
SHRMAN/DENISON CLOUDY    67  56  69 SE9       30.12F
GAINESVILLE    CLOUDY    68  55  63 SE7       30.14R
BOWIE          CLOUDY    67  59  75 SE3       30.12S
BRIDGEPORT     CLOUDY    69  60  73 S7        30.12F
DECATUR        CLOUDY    68  56  66 SE8       30.11S
DENTON         CLOUDY    70  56  61 SE8       30.11R
MCKINNEY       CLOUDY    66  54  65 SE7       30.12S
GREENVILLE     CLOUDY    64  52  63 E5        30.13S
ROCKWALL       CLOUDY    66  54  64 SE7       30.11S
TERRELL        CLOUDY    67  54  63 E7        30.12S
WAXAHACHIE     CLOUDY    67  56  67 CALM      30.12F
CLEBURNE       CLOUDY    70  57  64 SE9       30.12S
GRANBURY       CLOUDY    71  58  64 CALM      30.11F
$$

TXZ083>090-098>101-113>116-127>130-139>142-154-155-230600-
WESTERN NORTH TEXAS

CITY           SKY/WX    TMP DP  RH WIND       PRES   REMARKS
WICHITA FALLS  MOCLDY    63  61  93 N3        30.10F
WF-KICKAPOO    CLOUDY    67  59  77 N9        30.11S
VERNON         CLOUDY    63  61  94 E3        30.11F
ABILENE        CLEAR     62  55  77 SE5       30.11F
ABILENE-DYESS  CLEAR     59  55  88 W1        30.10F
BRECKENRIDGE   PTCLDY    68  59  73 SE8       30.10F
GRAHAM         CLOUDY    67  61  79 SE5       30.09F
MINERAL WELLS  CLOUDY    67  59  75 SE6       30.09F
STEPHENVILLE   CLOUDY    69  56  62 SE6       30.14S
COMANCHE       MOCLDY    68  60  74 SE6       30.12S
BROWNWOOD      CLOUDY    68  57  68 CALM      30.12S
COLEMAN        MOCLDY    64  60  89 CALM      30.12S FOG
BRADY          CLEAR     66  52  59 CALM      30.12F
$$

TXZ143>147-156>162-174-175-230600-
CENTRAL TEXAS

CITY           SKY/WX    TMP DP  RH WIND       PRES   REMARKS
WACO           CLOUDY    66  58  75 SE6       30.10F
WACO-MCGREGOR  CLOUDY    70  54  56 SE5       30.12S
HILLSBORO      CLOUDY    69  55  61 E10       30.09F
CORSICANA      CLOUDY    67  56  67 E7        30.12F
MEXIA          CLOUDY    65  57  75 E3        30.10F
HEARNE         CLOUDY    67  58  71 CALM      30.11S
CAMERON        CLOUDY    68  59  73 SE5       30.10S
TEMPLE         CLOUDY    70  54  56 E6        30.10S
KILLEEN        MOCLDY    72  57  60 E10       30.10S
KILLEEN-SKYLRK CLOUDY    70  55  60 SE5       30.11R
FORT HOOD      CLOUDY    72  59  63 E5        30.11R
GATESVILLE     CLOUDY    68  61  77 CALM      30.13S
HAMILTON       CLOUDY    69  57  65 S9        30.12F
LAMPASAS       CLOUDY    71  64  78 CALM      30.10F
$$

TXZ095>097-106>112-122>126-135>138-148>153-164>167-230600-
EAST TEXAS

CITY           SKY/WX    TMP DP  RH WIND       PRES   REMARKS
PARIS          CLOUDY    61  48  63 SE8       30.15F
SULPHUR SPRNGS CLOUDY    63  53  69 E8        30.14F
MOUNT PLEASANT CLOUDY    61  53  74 E5        30.16F
MINEOLA        CLOUDY    59  55  88 CALM      30.14F
TYLER          CLOUDY    67  52  58 E5        30.14R
LONGVIEW       PTCLDY    60  53  77 E6        30.13S
MARSHALL       PTCLDY    62  55  76 NE3       30.16S
ATHENS         CLOUDY    63  54  72 CALM      30.11F
PALESTINE      CLOUDY    66  55  66 NE6       30.13F
JACKSONVILLE   MOCLDY    62  53  71 E5        30.15F
HENDERSON      MOCLDY    61  53  74 E5        30.14S
NACOGDOCHES    PTCLDY    61  52  72 E5        30.12F
LUFKIN         CLEAR     61  54  77 NE7       30.10F
$$

SUPPLEMENTAL OBSERVATIONS (CENTRAL)

CITY           SKY/WX    TMP DP  RH WIND       PRES   REMARKS
LAKE TEXOMA      N/A     66  54  63 SE7         N/A
CADDO GRASSLND   N/A     64  52  63 SE5         N/A
PAT MAYSE LAKE   N/A     64  52  63 E6          N/A
PALESTINE        N/A     57  54  88 CALM        N/A
MCGREGOR         N/A     68  57  68 SE3         N/A
TEMPLE           N/A     68  55  64 E5          N/A
$$

SUPPLEMENTAL OBSERVATIONS (WEST)

CITY           SKY/WX    TMP DP  RH WIND       PRES   REMARKS
MILLERS CREEK    N/A     63  55  77 NE1         N/A
POSSUM KINGDOM   N/A     68  57  68 SE5         N/A
LBJ GRASSLAND    N/A     70  55  60 SE6         N/A
GRANBURY         N/A     72  55  56 SE5         N/A
HAMBY            N/A     59  54  82 SE3         N/A
IVIE RESERVOIR   N/A     64  54  68 S2          N/A
COLORADO BEND    N/A     70  57  64 SE5         N/A
$$

SUPPLEMENTAL OBSERVATIONS (EAST)

CITY           SKY/WX    TMP DP  RH WIND       PRES   REMARKS
CLARKSVILLE      N/A     61  52  72 E5          N/A
TEXARKANA        N/A     54  48  82 CALM        N/A
LINDEN           N/A     55  52  88 CALM        N/A
CADDO LAKE       N/A     52  50  93 CALM        N/A
GILMER           N/A     63  54  72 E5          N/A
HENDERSON        N/A     61  52  72 E5          N/A
LUFKIN           N/A     57  52  82 MISG        N/A
N SABINE NF      N/A     54  50  87 MISG        N/A
$$

SUPPLEMENTAL OBSERVATIONS ARE A COLLECTION OF AUTOMATED INSTRUMENTS
THAT ARE MAINTAINED BY A VARIETY OF FEDERAL AND STATE AGENCIES.
CERTAIN ELEMENTS...SUCH AS HUMIDITY VALUES AND SUSTAINED WIND
SPEEDS...MAY BE APPROXIMATED.




USA.gov is the U.S. government's official web portal to all federal, state and local government web resources and services.